Regional Weather Roundup
Issued by NWS Cleveland, OH

Home | Current Version | Previous Version | Graphics & Text | Print | Product List | Glossary On
Versions: 1 2 3 4 5 6 7 8 9 10 11 12 13 14 15 16 17 18 19 20 21 22 23 24 25 26 27 28 29 30 31 32 33 34 35 36 37 38 39 40 41 42 43 44 45 46 47 48 49 50
000
ASUS41 KCLE 290902
RWRCLE
OHIO REGIONAL WEATHER ROUNDUP
NATIONAL WEATHER SERVICE CLEVELAND, OH
500 AM EDT SUN MAY 29 2016

NOTE: "FAIR" INDICATES FEW OR NO CLOUDS BELOW 12,000 FEET WITH NO
SIGNIFICANT WEATHER AND/OR OBSTRUCTIONS TO VISIBILITY.

OHZ001>008-015>018-024>027-034-035-043-044-291000-
   NORTHWEST OHIO

CITY           SKY/WX    TMP DP  RH WIND       PRES   REMARKS
DEFIANCE       CLOUDY    70  64  81 S7        30.04F
FINDLAY        CLOUDY    69  62  78 S7        30.06F
TOLEDO EXPRESS CLOUDY    68  63  84 S6        30.05S
TOLEDO EXEC    CLOUDY    69  62  78 S7        30.06S
LIMA           CLOUDY    68  64  87 S8        30.08S
$$

OHZ009>014-019>023-028>033-038-089-291000-
   NORTHEAST OHIO

CITY           SKY/WX    TMP DP  RH WIND       PRES   REMARKS
CLE-HOPKINS    MOCLDY    69  62  78 S3        30.10F
CLE-LAKEFRONT  MOCLDY    72  64  76 CALM      30.07F
CUY CO. ARPT   NOT AVBL
LORAIN-ELYRIA  PTCLDY    66  63  90 S3        30.08F
ASHTABULA      PTCLDY    66  65  96 CALM      30.11S
AKRON-CANTON   MOCLDY    67  62  84 S3        30.11F
WOOSTER        MOCLDY    63  61  93 CALM      30.11F FOG
MANSFIELD      MOCLDY    66  65  96 S5        30.10F
YOUNGSTOWN     MOCLDY    64  62  93 CALM      30.11F
$$

OHZ042-051>053-060>062-070>072-077>081-291000-
  SOUTHWEST OHIO

CITY           SKY/WX    TMP DP  RH WIND       PRES   REMARKS
CINC-COVINGTON CLOUDY    69  63  81 S7        30.09S
CINC-LUNKEN    CLOUDY    65  65 100 CALM      30.10R
HAMILTON       CLOUDY    68  64  87 E3        30.09S
DAYTON         CLOUDY    70  62  76 S6        30.10S
WRIGHT-PAT AFB CLOUDY    67  65  92 SE5       30.09S
DAYTON GENERAL CLOUDY    69  60  73 S3        30.09S
WILMINGTON     MOCLDY    68  61  78 W3        30.10S
$$

OHZ036-037-039>041-045>050-054>059-063>069-073>076-082>088-291000-
  CENTRAL AND SOUTHEAST OHIO

CITY           SKY/WX    TMP DP  RH WIND       PRES   REMARKS
COLUMBUS       CLOUDY    67  65  93 CALM      30.09S
OSU AIRPORT    CLOUDY    67  66  97 E3        30.09F
BOLTON FIELD   NOT AVBL
RICKENBACK AFB NOT AVBL
NEWARK         CLOUDY    66  64  93 CALM      30.10S FOG
MARION         CLOUDY    64  63  96 S6        30.10S FOG
LANCASTER      CLOUDY    66  64  93 CALM      30.11S FOG
ZANESVILLE     CLOUDY    68  63  84 CALM      30.11R
NEW PHILLY     CLOUDY    67  62  84 CALM      30.11S
$$




USA.gov is the U.S. government's official web portal to all federal, state and local government web resources and services.